Time,TemperatureF,DewpointF,PressureIn,WindDirection,WindDirectionDegrees,WindSpeedMPH,WindSpeedGustMPH,Humidity,HourlyPrecipIn,Conditions,Clouds,dailyrainin,SoftwareType,DateUTC
2013-04-25 00:10:00,51.3,47.0,30.15,WSW,251,6.0,11.0,85,0.00,,,0.00,weatherlink.com 1.10,2013-04-25 04:10:00,
2013-04-25 00:25:00,50.7,47.0,30.16,West,267,1.0,10.0,86,0.00,,,0.00,weatherlink.com 1.10,2013-04-25 04:25:00,
2013-04-25 00:40:00,50.2,46.0,30.16,West,271,2.0,10.0,86,0.00,,,0.00,weatherlink.com 1.10,2013-04-25 04:40:00,
2013-04-25 00:55:00,49.9,46.0,30.16,West,266,0.0,5.0,85,0.00,,,0.00,weatherlink.com 1.10,2013-04-25 04:55:00,
2013-04-25 01:10:00,48.7,44.0,30.16,West,278,1.0,13.0,85,0.00,,,0.00,weatherlink.com 1.10,2013-04-25 05:10:00,
2013-04-25 01:25:00,48.1,44.0,30.17,WSW,240,1.0,10.0,86,0.00,,,0.00,weatherlink.com 1.10,2013-04-25 05:25:00,
2013-04-25 01:40:00,47.7,43.0,30.18,WSW,253,4.0,8.0,85,0.00,,,0.00,weatherlink.com 1.10,2013-04-25 05:40:00,
2013-04-25 01:55:00,47.2,43.0,30.18,WSW,257,1.0,9.0,85,0.00,,,0.00,weatherlink.com 1.10,2013-04-25 05:55:00,
2013-04-25 02:10:00,46.8,42.0,30.18,WSW,256,2.0,9.0,84,0.00,,,0.00,weatherlink.com 1.10,2013-04-25 06:10:00,
2013-04-25 02:25:00,46.4,42.0,30.18,West,271,5.0,10.0,84,0.00,,,0.00,weatherlink.com 1.10,2013-04-25 06:25:00,
2013-04-25 02:40:00,46.1,42.0,30.18,WSW,258,0.0,10.0,84,0.00,,,0.00,weatherlink.com 1.10,2013-04-25 06:40:00,
2013-04-25 02:55:00,45.7,42.0,30.17,West,263,3.0,8.0,85,0.00,,,0.00,weatherlink.com 1.10,2013-04-25 06:55:00,
2013-04-25 03:10:00,45.3,41.0,30.17,West,270,0.0,12.0,85,0.00,,,0.00,weatherlink.com 1.10,2013-04-25 07:10:00,
2013-04-25 03:26:00,45.0,41.0,30.18,WSW,257,3.0,13.0,86,0.00,,,0.00,weatherlink.com 1.10,2013-04-25 07:26:00,
2013-04-25 03:41:00,44.7,41.0,30.18,NW,320,2.0,13.0,85,0.00,,,0.00,weatherlink.com 1.10,2013-04-25 07:41:00,
2013-04-25 03:56:00,44.5,41.0,30.20,WNW,284,5.0,12.0,86,0.00,,,0.00,weatherlink.com 1.10,2013-04-25 07:56:00,
2013-04-25 04:11:00,44.3,40.0,30.21,West,273,1.0,8.0,85,0.00,,,0.00,weatherlink.com 1.10,2013-04-25 08:11:00,
2013-04-25 04:26:00,44.2,39.0,30.21,West,281,12.0,12.0,82,0.00,,,0.00,weatherlink.com 1.10,2013-04-25 08:26:00,
2013-04-25 04:41:00,43.6,38.0,30.21,WSW,255,4.0,8.0,82,0.00,,,0.00,weatherlink.com 1.10,2013-04-25 08:41:00,
2013-04-25 04:56:00,42.9,38.0,30.21,WSW,242,1.0,13.0,83,0.00,,,0.00,weatherlink.com 1.10,2013-04-25 08:56:00,
2013-04-25 05:26:00,42.2,38.0,30.23,West,265,1.0,7.0,85,0.00,,,0.00,weatherlink.com 1.10,2013-04-25 09:26:00,
2013-04-25 05:41:00,41.8,38.0,30.23,West,268,5.0,10.0,87,0.00,,,0.00,weatherlink.com 1.10,2013-04-25 09:41:00,
2013-04-25 05:56:00,41.5,38.0,30.23,WSW,255,2.0,10.0,87,0.00,,,0.00,weatherlink.com 1.10,2013-04-25 09:56:00,
2013-04-25 06:11:00,41.3,37.0,30.23,West,265,6.0,12.0,86,0.00,,,0.00,weatherlink.com 1.10,2013-04-25 10:11:00,
2013-04-25 06:26:00,41.0,37.0,30.24,SE,126,1.0,11.0,85,0.00,,,0.00,weatherlink.com 1.10,2013-04-25 10:26:00,
2013-04-25 06:41:00,40.7,37.0,30.25,SE,139,0.0,7.0,85,0.00,,,0.00,weatherlink.com 1.10,2013-04-25 10:41:00,
2013-04-25 06:56:00,40.6,36.0,30.26,WSW,257,0.0,10.0,84,0.00,,,0.00,weatherlink.com 1.10,2013-04-25 10:56:00,
2013-04-25 07:11:00,40.6,37.0,30.27,SSE,153,1.0,3.0,85,0.00,,,0.00,weatherlink.com 1.10,2013-04-25 11:11:00,
2013-04-25 07:26:00,41.0,37.0,30.27,ENE,72,0.0,2.0,84,0.00,,,0.00,weatherlink.com 1.10,2013-04-25 11:26:00,
2013-04-25 07:41:00,41.2,36.0,30.28,WSW,248,1.0,4.0,83,0.00,,,0.00,weatherlink.com 1.10,2013-04-25 11:41:00,
2013-04-25 07:56:00,41.8,36.0,30.28,West,267,0.0,5.0,81,0.00,,,0.00,weatherlink.com 1.10,2013-04-25 11:56:00,
2013-04-25 08:11:00,42.6,37.0,30.29,West,264,0.0,4.0,80,0.00,,,0.00,weatherlink.com 1.10,2013-04-25 12:11:00,
2013-04-25 08:26:00,44.0,37.0,30.29,WSW,252,3.0,4.0,76,0.00,,,0.00,weatherlink.com 1.10,2013-04-25 12:26:00,
2013-04-25 08:41:00,44.5,37.0,30.29,West,271,0.0,3.0,75,0.00,,,0.00,weatherlink.com 1.10,2013-04-25 12:41:00,
2013-04-25 08:56:00,45.1,37.0,30.29,WSW,257,0.0,5.0,73,0.00,,,0.00,weatherlink.com 1.10,2013-04-25 12:56:00,
2013-04-25 09:11:00,46.3,38.0,30.30,West,259,0.0,4.0,73,0.00,,,0.00,weatherlink.com 1.10,2013-04-25 13:11:00,
2013-04-25 09:26:00,46.8,38.0,30.29,West,273,0.0,4.0,71,0.00,,,0.00,weatherlink.com 1.10,2013-04-25 13:26:00,
2013-04-25 09:41:00,47.9,38.0,30.29,SW,217,0.0,3.0,68,0.00,,,0.00,weatherlink.com 1.10,2013-04-25 13:41:00,
2013-04-25 09:56:00,48.4,38.0,30.29,West,275,0.0,4.0,67,0.00,,,0.00,weatherlink.com 1.10,2013-04-25 13:56:00,
2013-04-25 10:11:00,49.2,37.0,30.30,West,259,0.0,4.0,64,0.00,,,0.00,weatherlink.com 1.10,2013-04-25 14:11:00,
2013-04-25 10:27:00,50.1,39.0,30.30,West,273,1.0,4.0,65,0.00,,,0.00,weatherlink.com 1.10,2013-04-25 14:27:00,
2013-04-25 10:42:00,51.2,38.0,30.31,WSW,254,1.0,5.0,61,0.00,,,0.00,weatherlink.com 1.10,2013-04-25 14:42:00,
2013-04-25 10:57:00,52.5,39.0,30.31,West,271,2.0,5.0,60,0.00,,,0.00,weatherlink.com 1.10,2013-04-25 14:57:00,
2013-04-25 11:12:00,54.1,39.0,30.32,WNW,298,0.0,4.0,57,0.00,,,0.00,weatherlink.com 1.10,2013-04-25 15:12:00,
2013-04-25 11:27:00,54.8,39.0,30.32,West,279,3.0,6.0,55,0.00,,,0.00,weatherlink.com 1.10,2013-04-25 15:27:00,
2013-04-25 11:42:00,55.2,38.0,30.33,West,278,2.0,6.0,52,0.00,,,0.00,weatherlink.com 1.10,2013-04-25 15:42:00,
2013-04-25 11:57:00,55.9,39.0,30.33,WSW,247,1.0,4.0,53,0.00,,,0.00,weatherlink.com 1.10,2013-04-25 15:57:00,
2013-04-25 12:12:00,57.3,39.0,30.32,SE,137,0.0,5.0,50,0.00,,,0.00,weatherlink.com 1.10,2013-04-25 16:12:00,
2013-04-25 12:27:00,58.3,37.0,30.33,WNW,300,0.0,4.0,46,0.00,,,0.00,weatherlink.com 1.10,2013-04-25 16:27:00,
2013-04-25 12:42:00,59.3,37.0,30.32,West,271,4.0,7.0,43,0.00,,,0.00,weatherlink.com 1.10,2013-04-25 16:42:00,
2013-04-25 12:57:00,59.5,37.0,30.32,WNW,286,0.0,7.0,43,0.00,,,0.00,weatherlink.com 1.10,2013-04-25 16:57:00,
2013-04-25 13:12:00,60.0,34.0,30.33,West,277,2.0,8.0,38,0.00,,,0.00,weatherlink.com 1.10,2013-04-25 17:12:00,
2013-04-25 13:27:00,60.3,34.0,30.33,WNW,296,3.0,9.0,37,0.00,,,0.00,weatherlink.com 1.10,2013-04-25 17:27:00,
2013-04-25 13:42:00,60.8,30.0,30.33,West,259,3.0,8.0,31,0.00,,,0.00,weatherlink.com 1.10,2013-04-25 17:42:00,
2013-04-25 13:57:00,61.0,25.0,30.33,West,266,2.0,8.0,25,0.00,,,0.00,weatherlink.com 1.10,2013-04-25 17:57:00,
2013-04-25 14:12:00,62.3,5.0,30.32,West,264,2.0,8.0,10,0.00,,,0.00,weatherlink.com 1.10,2013-04-25 18:12:00,
2013-04-25 14:27:00,62.8,11.0,30.33,WNW,293,3.0,10.0,13,0.00,,,0.00,weatherlink.com 1.10,2013-04-25 18:27:00,
2013-04-25 14:42:00,62.1,10.0,30.32,WNW,286,5.0,12.0,13,0.00,,,0.00,weatherlink.com 1.10,2013-04-25 18:42:00,
2013-04-25 14:57:00,62.2,12.0,30.32,West,273,2.0,8.0,14,0.00,,,0.00,weatherlink.com 1.10,2013-04-25 18:57:00,
2013-04-25 15:12:00,62.1,12.0,30.32,WNW,288,7.0,11.0,14,0.00,,,0.00,weatherlink.com 1.10,2013-04-25 19:12:00,
2013-04-25 15:27:00,62.4,7.0,30.32,NNW,327,1.0,8.0,11,0.00,,,0.00,weatherlink.com 1.10,2013-04-25 19:27:00,
2013-04-25 15:42:00,62.7,7.0,30.32,WNW,290,3.0,7.0,11,0.00,,,0.00,weatherlink.com 1.10,2013-04-25 19:42:00,
2013-04-25 15:57:00,62.9,9.0,30.31,WSW,254,1.0,8.0,12,0.00,,,0.00,weatherlink.com 1.10,2013-04-25 19:57:00,
2013-04-25 16:12:00,62.9,9.0,30.31,West,279,0.0,9.0,12,0.00,,,0.00,weatherlink.com 1.10,2013-04-25 20:12:00,
2013-04-25 16:27:00,63.6,19.0,30.30,West,279,2.0,6.0,18,0.00,,,0.00,weatherlink.com 1.10,2013-04-25 20:27:00,
2013-04-25 16:42:00,64.3,18.0,30.29,WNW,283,2.0,9.0,17,0.00,,,0.00,weatherlink.com 1.10,2013-04-25 20:42:00,
2013-04-25 16:57:00,64.9,20.0,30.30,WNW,292,1.0,7.0,18,0.00,,,0.00,weatherlink.com 1.10,2013-04-25 20:57:00,
2013-04-25 17:12:00,64.4,22.0,30.30,WNW,293,0.0,11.0,20,0.00,,,0.00,weatherlink.com 1.10,2013-04-25 21:12:00,
2013-04-25 17:27:00,63.9,19.0,30.30,WSW,252,0.0,7.0,18,0.00,,,0.00,weatherlink.com 1.10,2013-04-25 21:27:00,
2013-04-25 17:42:00,63.2,19.0,30.31,NW,308,3.0,10.0,18,0.00,,,0.00,weatherlink.com 1.10,2013-04-25 21:42:00,
2013-04-25 17:57:00,62.7,18.0,30.31,NNE,17,1.0,7.0,18,0.00,,,0.00,weatherlink.com 1.10,2013-04-25 21:57:00,
2013-04-25 18:12:00,62.7,20.0,30.32,WSW,240,3.0,6.0,19,0.00,,,0.00,weatherlink.com 1.10,2013-04-25 22:12:00,
2013-04-25 18:27:00,62.5,17.0,30.32,West,272,2.0,4.0,17,0.00,,,0.00,weatherlink.com 1.10,2013-04-25 22:27:00,
2013-04-25 18:42:00,62.5,20.0,30.32,SSW,209,0.0,9.0,19,0.00,,,0.00,weatherlink.com 1.10,2013-04-25 22:42:00,
2013-04-25 18:57:00,62.8,17.0,30.33,NW,311,2.0,8.0,17,0.00,,,0.00,weatherlink.com 1.10,2013-04-25 22:57:00,
2013-04-25 19:12:00,61.1,17.0,30.33,WSW,255,2.0,9.0,18,0.00,,,0.00,weatherlink.com 1.10,2013-04-25 23:12:00,
2013-04-25 19:27:00,59.8,20.0,30.34,West,263,6.0,8.0,21,0.00,,,0.00,weatherlink.com 1.10,2013-04-25 23:27:00,
2013-04-25 19:42:00,59.1,22.0,30.34,WNW,287,3.0,10.0,24,0.00,,,0.00,weatherlink.com 1.10,2013-04-25 23:42:00,
2013-04-25 19:57:00,58.0,24.0,30.35,West,264,2.0,7.0,27,0.00,,,0.00,weatherlink.com 1.10,2013-04-25 23:57:00,
2013-04-25 20:13:00,57.2,26.0,30.35,West,263,0.0,9.0,30,0.00,,,0.00,weatherlink.com 1.10,2013-04-26 00:13:00,
2013-04-25 20:28:00,56.4,25.0,30.35,West,264,2.0,11.0,30,0.00,,,0.00,weatherlink.com 1.10,2013-04-26 00:28:00,
2013-04-25 20:43:00,55.9,25.0,30.36,West,263,1.0,8.0,30,0.00,,,0.00,weatherlink.com 1.10,2013-04-26 00:43:00,
2013-04-25 20:58:00,55.2,24.0,30.36,WSW,258,5.0,9.0,30,0.00,,,0.00,weatherlink.com 1.10,2013-04-26 00:58:00,
2013-04-25 21:13:00,54.6,24.0,30.37,WSW,253,0.0,5.0,31,0.00,,,0.00,weatherlink.com 1.10,2013-04-26 01:13:00,
2013-04-25 21:28:00,54.1,22.0,30.37,West,261,3.0,13.0,29,0.00,,,0.00,weatherlink.com 1.10,2013-04-26 01:28:00,
2013-04-25 21:43:00,54.3,21.0,30.38,SW,232,0.0,11.0,27,0.00,,,0.00,weatherlink.com 1.10,2013-04-26 01:43:00,
2013-04-25 21:58:00,53.7,22.0,30.39,WSW,253,0.0,9.0,29,0.00,,,0.00,weatherlink.com 1.10,2013-04-26 01:58:00,
2013-04-25 22:13:00,53.3,22.0,30.39,SW,235,1.0,9.0,30,0.00,,,0.00,weatherlink.com 1.10,2013-04-26 02:13:00,
2013-04-25 22:28:00,53.2,24.0,30.40,West,266,0.0,9.0,32,0.00,,,0.00,weatherlink.com 1.10,2013-04-26 02:28:00,
2013-04-25 22:43:00,53.0,24.0,30.40,SW,230,0.0,9.0,33,0.00,,,0.00,weatherlink.com 1.10,2013-04-26 02:43:00,
2013-04-25 22:58:00,52.5,25.0,30.40,WSW,256,0.0,7.0,34,0.00,,,0.00,weatherlink.com 1.10,2013-04-26 02:58:00,
2013-04-25 23:13:00,52.3,25.0,30.40,West,261,1.0,4.0,34,0.00,,,0.00,weatherlink.com 1.10,2013-04-26 03:13:00,
2013-04-25 23:28:00,52.2,24.0,30.40,SW,231,4.0,9.0,34,0.00,,,0.00,weatherlink.com 1.10,2013-04-26 03:28:00,
2013-04-25 23:43:00,51.8,25.0,30.41,West,261,0.0,6.0,35,0.00,,,0.00,weatherlink.com 1.10,2013-04-26 03:43:00,
2013-04-25 23:58:00,51.5,25.0,30.41,South,188,0.0,4.0,36,0.00,,,0.00,weatherlink.com 1.10,2013-04-26 03:58:00,